Weather History for KTHA - January, 2013

Change the Weather History Date:

Thursday, January 24, 2013

  Actual Average Record
Temperature  
Mean Temperature 36 °F -  
Max Temperature 44 °F 49 °F 44 °F (2013)
Min Temperature 28 °F 30 °F 0 °F (2014)
Degree Days  
Heating Degree Days 29    
Moisture  
Dew Point 17 °F    
Average Humidity 54    
Maximum Humidity 81    
Minimum Humidity 33    
Precipitation  
Precipitation 0.00 in - - ()
Sea Level Pressure  
Sea Level Pressure 30.32 in    
Wind  
Wind Speed 8 mph (NNE)    
Max Wind Speed 16 mph    
Max Gust Speed -    
Visibility 10 miles    
Events      
Averages and records for this station are not official NWS values.
T = Trace of Precipitation, MM = Missing Value Source: NWS Daily Summary

Daily Weather History Graph

Daily Weather History Graph

Search for Another Location

Airport or City:

Trip Planner

Search our weather history database for the weather conditions in past years. The results will help you decide how hot, cold, wet, or windy it might be!

Date:

Astronomy

Jan. 24, 2013 Rise Set
Actual Time 6:49 AM CST 5:05 PM CST
Civil Twilight 6:22 AM CST 5:32 PM CST
Nautical Twilight 5:51 AM CST 6:03 PM CST
Astronomical Twilight 5:21 AM CST 6:33 PM CST
Moon 3:07 PM CST (1/24) 4:45 AM CST (1/24)
Length of Visible Light 11h 09m
Length of Day
10h 15m
Waxing Gibbous, 94% of the Moon is Illuminated
Jan 24
Waxing Gibbous
Jan 26
Full
Feb 3
Last Quarter
Feb 10
New
Feb 17
First Quarter

Hourly Weather History & Observations

Time (CST) Temp. Windchill Dew Point Humidity Pressure Visibility Wind Dir Wind Speed Gust Speed Precip Events Conditions
12:15 AM 44.6 °F 40.2 °F 35.6 °F 71% 30.19 in 10.0 mi West 8.1 mph - N/A   Overcast
12:35 AM 44.6 °F 39.7 °F 35.6 °F 71% 30.20 in 10.0 mi West 9.2 mph - N/A   Overcast
12:55 AM 42.8 °F 37.5 °F 35.6 °F 76% 30.19 in 10.0 mi WNW 9.2 mph - N/A   Partly Cloudy
1:15 AM 42.8 °F 38.6 °F 33.8 °F 70% 30.20 in 10.0 mi WNW 6.9 mph - N/A   Scattered Clouds
1:35 AM 42.8 °F 38.0 °F 35.6 °F 76% 30.20 in 10.0 mi NW 8.1 mph - N/A   Overcast
1:55 AM 41.0 °F 35.8 °F 33.8 °F 76% 30.20 in 10.0 mi NW 8.1 mph - N/A   Mostly Cloudy
2:15 AM 39.2 °F 35.0 °F 33.8 °F 81% 30.21 in 10.0 mi NNW 5.8 mph - N/A   Clear
2:35 AM 39.2 °F 35.0 °F 33.8 °F 81% 30.22 in 10.0 mi NNW 5.8 mph - N/A   Scattered Clouds
2:55 AM 37.4 °F 33.8 °F 32.0 °F 81% 30.22 in 10.0 mi NW 4.6 mph - N/A   Partly Cloudy
3:15 AM 37.4 °F 32.1 °F 32.0 °F 81% 30.22 in 10.0 mi NNW 6.9 mph - N/A   Clear
3:35 AM 37.4 °F 32.1 °F 32.0 °F 81% 30.21 in 10.0 mi North 6.9 mph - N/A   Clear
3:55 AM 37.4 °F 29.3 °F 32.0 °F 81% 30.21 in 10.0 mi North 12.7 mph - N/A   Clear
4:15 AM 35.6 °F 28.0 °F 30.2 °F 81% 30.22 in 10.0 mi North 10.4 mph - N/A   Clear
4:35 AM 35.6 °F 28.0 °F 26.6 °F 70% 30.24 in 10.0 mi North 10.4 mph - N/A   Clear
4:55 AM 33.8 °F 24.8 °F 26.6 °F 75% 30.25 in 10.0 mi North 12.7 mph - N/A   Clear
5:15 AM 33.8 °F 25.8 °F 24.8 °F 70% 30.26 in 10.0 mi North 10.4 mph - N/A   Clear
5:35 AM 32.0 °F 24.8 °F 23.0 °F 69% 30.27 in 10.0 mi North 8.1 mph - N/A   Clear
5:55 AM 32.0 °F 23.0 °F 21.2 °F 64% 30.28 in 10.0 mi North 11.5 mph - N/A   Clear
6:15 AM 30.2 °F 21.3 °F 21.2 °F 69% 30.29 in 10.0 mi North 10.4 mph - N/A   Clear
6:35 AM 28.4 °F 19.7 °F 21.2 °F 74% 30.30 in 10.0 mi North 9.2 mph - N/A   Clear
6:55 AM 28.4 °F 19.7 °F 19.4 °F 69% 30.32 in 10.0 mi North 9.2 mph - N/A   Clear
7:15 AM 28.4 °F 20.4 °F 19.4 °F 69% 30.33 in 10.0 mi North 8.1 mph - N/A   Clear
7:35 AM 28.4 °F 19.7 °F 19.4 °F 69% 30.35 in 10.0 mi North 9.2 mph - N/A   Clear
7:55 AM 28.4 °F 18.0 °F 19.4 °F 69% 30.35 in 10.0 mi North 12.7 mph - N/A   Clear
8:15 AM 30.2 °F 18.9 °F 19.4 °F 64% 30.36 in 10.0 mi North 16.1 mph - N/A   Clear
8:35 AM 30.2 °F 19.3 °F 19.4 °F 64% 30.37 in 10.0 mi North 15.0 mph - N/A   Clear
8:55 AM 30.2 °F 20.8 °F 19.4 °F 64% 30.37 in 10.0 mi NE 11.5 mph - N/A   Clear
9:15 AM 30.2 °F 20.8 °F 19.4 °F 64% 30.37 in 10.0 mi NNE 11.5 mph - N/A   Clear
9:35 AM 32.0 °F 22.5 °F 17.6 °F 55% 30.39 in 10.0 mi North 12.7 mph - N/A   Clear
9:55 AM 32.0 °F 23.0 °F 15.8 °F 51% 30.39 in 10.0 mi NE 11.5 mph - N/A   Clear
10:15 AM 33.8 °F 25.3 °F 15.8 °F 48% 30.39 in 10.0 mi NNE 11.5 mph - N/A   Clear
10:35 AM 33.8 °F 25.8 °F 14.0 °F 44% 30.41 in 10.0 mi NNE 10.4 mph - N/A   Clear
10:55 AM 33.8 °F 25.8 °F 15.8 °F 48% 30.40 in 10.0 mi NE 10.4 mph - N/A   Clear
11:15 AM 33.8 °F 25.3 °F 14.0 °F 44% 30.40 in 10.0 mi NE 11.5 mph - N/A   Clear
11:35 AM 33.8 °F 25.3 °F 14.0 °F 44% 30.39 in 10.0 mi NE 11.5 mph - N/A   Clear
11:55 AM 35.6 °F 28.0 °F 14.0 °F 41% 30.39 in 10.0 mi NNE 10.4 mph - N/A   Clear
12:15 PM 35.6 °F 29.2 °F 14.0 °F 41% 30.39 in 10.0 mi ENE 8.1 mph - N/A   Clear
12:35 PM 35.6 °F 30.7 °F 15.8 °F 44% 30.38 in 10.0 mi Variable 5.8 mph - N/A   Clear
12:55 PM 35.6 °F 28.6 °F 15.8 °F 44% 30.37 in 10.0 mi ENE 9.2 mph - N/A   Clear
1:15 PM 35.6 °F 29.2 °F 15.8 °F 44% 30.37 in 10.0 mi ENE 8.1 mph - N/A   Clear
1:35 PM 35.6 °F 28.0 °F 15.8 °F 44% 30.36 in 10.0 mi NE 10.4 mph - N/A   Clear
1:55 PM 35.6 °F 29.9 °F 15.8 °F 44% 30.36 in 10.0 mi ENE 6.9 mph - N/A   Clear
2:15 PM 35.6 °F 29.2 °F 14.0 °F 41% 30.35 in 10.0 mi East 8.1 mph - N/A   Clear
2:35 PM 35.6 °F 29.2 °F 12.2 °F 38% 30.36 in 10.0 mi NNE 8.1 mph - N/A   Clear
2:55 PM 35.6 °F 29.9 °F 12.2 °F 38% 30.36 in 10.0 mi NE 6.9 mph - N/A   Clear
3:15 PM 35.6 °F 28.0 °F 10.4 °F 35% 30.36 in 10.0 mi ENE 10.4 mph - N/A   Clear
3:35 PM 35.6 °F 28.6 °F 8.6 °F 33% 30.36 in 10.0 mi NNE 9.2 mph - N/A   Clear
3:55 PM 33.8 °F 27.0 °F 8.6 °F 35% 30.36 in 10.0 mi NE 8.1 mph - N/A   Clear
4:15 PM 33.8 °F 27.7 °F 8.6 °F 35% 30.36 in 10.0 mi ENE 6.9 mph - N/A   Clear
5:15 PM 30.2 °F 24.3 °F 6.8 °F 37% 30.36 in 10.0 mi NE 5.8 mph - N/A   Clear
5:35 PM 30.2 °F 23.4 °F 6.8 °F 37% 30.37 in 10.0 mi NE 6.9 mph - N/A   Clear
5:55 PM 30.2 °F 23.4 °F 6.8 °F 37% 30.37 in 10.0 mi NE 6.9 mph - N/A   Clear
6:15 PM 30.2 °F 25.4 °F 6.8 °F 37% 30.36 in 10.0 mi NE 4.6 mph - N/A   Clear
6:35 PM 30.2 °F 25.4 °F 6.8 °F 37% 30.37 in 10.0 mi NE 4.6 mph - N/A   Clear
6:55 PM 28.4 °F 21.2 °F 6.8 °F 40% 30.36 in 10.0 mi NE 6.9 mph - N/A   Clear
7:15 PM 28.4 °F 22.2 °F 6.8 °F 40% 30.35 in 10.0 mi NE 5.8 mph - N/A   Clear
7:35 PM 28.4 °F 22.2 °F 6.8 °F 40% 30.35 in 10.0 mi ENE 5.8 mph - N/A   Clear
7:55 PM 28.4 °F 21.2 °F 6.8 °F 40% 30.34 in 10.0 mi ENE 6.9 mph - N/A   Clear
8:15 PM 28.4 °F 20.4 °F 6.8 °F 40% 30.31 in 10.0 mi East 8.1 mph - N/A   Scattered Clouds
8:35 PM 28.4 °F 24.6 °F 6.8 °F 40% 30.33 in 10.0 mi ENE 3.5 mph - N/A   Overcast
8:55 PM 28.4 °F 23.3 °F 6.8 °F 40% 30.32 in 10.0 mi East 4.6 mph - N/A   Overcast
9:15 PM 28.4 °F 21.2 °F 6.8 °F 40% 30.29 in 10.0 mi East 6.9 mph - N/A   Overcast
9:35 PM 28.4 °F - 8.6 °F 43% 30.31 in 10.0 mi Calm Calm - N/A   Overcast
9:55 PM 28.4 °F 24.6 °F 8.6 °F 43% 30.32 in 10.0 mi NE 3.5 mph - N/A   Overcast
10:15 PM 30.2 °F 26.7 °F 8.6 °F 40% 30.31 in 10.0 mi East 3.5 mph - N/A   Mostly Cloudy
10:35 PM 30.2 °F 26.7 °F 8.6 °F 40% 30.30 in 10.0 mi ESE 3.5 mph - N/A   Mostly Cloudy
10:55 PM 30.2 °F 26.7 °F 8.6 °F 40% 30.30 in 10.0 mi ENE 3.5 mph - N/A   Mostly Cloudy
11:15 PM 30.2 °F 25.4 °F 10.4 °F 44% 30.28 in 10.0 mi ESE 4.6 mph - N/A   Mostly Cloudy
11:35 PM 30.2 °F 25.4 °F 10.4 °F 44% 30.28 in 10.0 mi ESE 4.6 mph - N/A   Mostly Cloudy
11:55 PM 30.2 °F 24.3 °F 10.4 °F 44% 30.26 in 10.0 mi ESE 5.8 mph - N/A   Overcast